Location: Newark
(34.1333°N, 7.9667°W)
Time: 21:23:00
(UTC+00:00)

Transit 4A - All Passes

Search period start: 13 June 2021 00:00
Search period end: 23 June 2021 00:00
Orbit: 871 x 973 km, 66.8° (Epoch: 13 June)

Date Brightness Start Highest point End Pass type
(mag) Time Alt. Az. Time Alt. Az. Time Alt. Az.
13 Jun - 10:20:59 10° S 10:26:30 36° ESE 10:31:55 10° NE daylight
13 Jun - 12:07:30 10° WSW 12:12:49 31° NW 12:18:04 10° N daylight
13 Jun - 19:27:58 10° N 19:32:15 21° NE 19:36:31 10° E daylight
13 Jun - 21:13:13 10° NW 21:18:53 55° WSW 21:24:37 10° S visible
14 Jun - 10:29:43 10° S 10:35:41 57° ESE 10:41:32 10° NE daylight
14 Jun - 12:17:52 10° W 12:22:21 21° NW 12:26:47 10° N daylight
14 Jun - 19:36:41 10° N 19:41:47 30° NE 19:46:53 10° ESE daylight
14 Jun - 21:22:52 10° NW 21:28:04 35° WSW 21:33:18 10° S visible
15 Jun - 10:38:48 10° SSW 10:44:56 88° ESE 10:50:56 10° NNE daylight
15 Jun - 12:28:51 10° W 12:32:00 14° NW 12:35:06 10° NNW daylight
15 Jun - 19:45:38 10° NNW 19:51:13 46° ENE 19:56:50 10° SE daylight
15 Jun - 21:32:50 10° WNW 21:37:10 22° WSW 21:41:31 10° SSW visible
16 Jun - 09:04:42 10° SE 09:08:27 17° ESE 09:12:10 10° ENE daylight
16 Jun - 10:48:13 10° SW 10:54:15 61° WNW 11:00:09 10° NNE daylight
16 Jun - 18:12:08 10° NNE 18:13:14 10° NE 18:14:20 10° NE daylight
16 Jun - 19:54:45 10° NNW 20:00:34 72° ENE 20:06:26 10° SSE daylight
16 Jun - 21:43:36 10° WNW 21:46:12 13° WSW 21:48:49 10° SW visible
17 Jun - 09:12:31 10° SSE 09:17:32 27° ESE 09:22:28 10° NE daylight
17 Jun - 10:57:58 10° SW 11:03:38 40° WNW 11:09:12 10° N daylight
17 Jun - 18:19:27 10° NNE 18:22:57 16° NE 18:26:26 10° E daylight
17 Jun - 20:04:02 10° NNW 20:09:51 74° WSW 20:15:43 10° SSE visible
18 Jun - 09:20:58 10° S 09:26:40 42° ESE 09:32:16 10° NE daylight
18 Jun - 11:08:03 10° WSW 11:13:06 27° NW 11:18:05 10° N daylight
18 Jun - 18:27:55 10° N 18:32:33 24° NE 18:37:10 10° ESE daylight
18 Jun - 20:13:31 10° NW 20:19:03 47° WSW 20:24:40 10° S visible
19 Jun - 09:29:50 10° SSW 09:35:52 67° ESE 09:41:47 10° NNE daylight
19 Jun - 11:18:36 10° W 11:22:40 18° NW 11:26:42 10° N daylight
19 Jun - 18:36:44 10° N 18:42:03 35° ENE 18:47:22 10° ESE daylight
19 Jun - 20:23:14 10° NW 20:28:12 29° WSW 20:33:13 10° SSW visible
20 Jun - 07:57:20 10° SE 07:59:33 12° ESE 08:01:44 10° E daylight
20 Jun - 09:39:02 10° SSW 09:45:08 80° WNW 09:51:07 10° NNE daylight
20 Jun - 11:29:58 10° WNW 11:32:21 12° NW 11:34:42 10° NNW daylight
20 Jun - 18:45:45 10° NNW 18:51:27 54° ENE 18:57:11 10° SE daylight
20 Jun - 20:33:24 10° WNW 20:37:17 18° WSW 20:41:12 10° SSW visible
21 Jun - 08:04:18 10° SSE 08:08:35 20° ESE 08:12:48 10° ENE daylight
21 Jun - 09:48:34 10° SW 09:54:28 52° WNW 10:00:17 10° NNE daylight
21 Jun - 17:11:17 10° NNE 17:13:36 12° NE 17:15:54 10° ENE daylight
21 Jun - 18:54:56 10° NNW 19:00:46 83° ENE 19:06:40 10° SSE daylight
21 Jun - 20:45:01 10° W 20:46:18 11° WSW 20:47:35 10° WSW visible
22 Jun - 08:12:23 10° S 08:17:41 32° ESE 08:22:52 10° NE daylight
22 Jun - 09:58:25 10° WSW 10:03:53 35° WNW 10:09:16 10° N daylight
22 Jun - 17:19:18 10° N 17:23:16 18° NE 17:27:14 10° E daylight
22 Jun - 19:04:17 10° NNW 19:10:01 63° WSW 19:15:50 10° SSE daylight
